When you browse on this site, cookies collect data to enhance your experience and personalize the content and advertising you see.
Visit our Privacy Policy to learn more. By continuing to use the site, you agree to this use of cookies and data.
  • In Austria
  • List of Countries
  • For 7 days
  • Water Temperature
  • Satellite Maps
  • Weather Map
  • News
  • Weather Widgets
  • user-avatar
    Login

    Hourly Weather Spring Valley

    Today, 18 April, Thursday

    Time Temperature Precipitation Wind Pressure Humidity
    00:00 +20°C° 0 mm 3 mps 701 mmHg 31%
    01:00 +19°C° 0 mm 3 mps 700 mmHg 33%
    02:00 +19°C° 0 mm 3 mps 701 mmHg 34%
    03:00 +18°C° 0 mm 2 mps 701 mmHg 35%
    04:00 +18°C° 0 mm 2 mps 701 mmHg 36%
    05:00 +19°C° 0 mm 2 mps 701 mmHg 34%
    06:00 +20°C° 0 mm 2 mps 702 mmHg 32%
    07:00 +21°C° 0 mm 2 mps 702 mmHg 30%
    08:00 +22°C° 0 mm 3 mps 703 mmHg 28%
    09:00 +23°C° 0 mm 4 mps 703 mmHg 25%
    10:00 +26°C° 0 mm 4 mps 703 mmHg 23%
    11:00 +27°C° 0 mm 4 mps 702 mmHg 21%
    12:00 +27°C° 0 mm 3 mps 702 mmHg 18%
    13:00 +28°C° 0 mm 3 mps 702 mmHg 16%
    14:00 +29°C° 0 mm 2 mps 701 mmHg 16%
    15:00 +29°C° 0 mm 2 mps 701 mmHg 15%
    16:00 +29°C° 0 mm 2 mps 700 mmHg 14%
    17:00 +28°C° 0 mm 1 mps 700 mmHg 16%
    18:00 +27°C° 0 mm 1 mps 700 mmHg 19%
    19:00 +26°C° 0 mm 1 mps 700 mmHg 21%
    20:00 +25°C° 0 mm 1 mps 700 mmHg 22%
    21:00 +24°C° 0 mm 1 mps 700 mmHg 23%
    22:00 +24°C° 0 mm 1 mps 700 mmHg 24%
    23:00 +23°C° 0 mm 1 mps 699 mmHg 25%

    Tomorrow, 19 April, Friday

    Time Temperature Precipitation Wind Pressure Humidity
    00:00 +22°C° 0 mm 1 mps 699 mmHg 27%
    01:00 +21°C° 0 mm 1 mps 699 mmHg 28%
    02:00 +21°C° 0 mm 1 mps 698 mmHg 27%
    03:00 +21°C° 0 mm 1 mps 698 mmHg 27%
    04:00 +20°C° 0 mm 1 mps 698 mmHg 27%
    05:00 +21°C° 0 mm 1 mps 698 mmHg 24%
    06:00 +23°C° 0 mm 1 mps 698 mmHg 22%
    07:00 +24°C° 0 mm 1 mps 699 mmHg 19%
    08:00 +25°C° 0 mm 2 mps 699 mmHg 18%
    09:00 +26°C° 0 mm 2 mps 699 mmHg 17%
    10:00 +27°C° 0 mm 2 mps 699 mmHg 16%
    11:00 +28°C° 0 mm 2 mps 698 mmHg 15%
    12:00 +29°C° 0 mm 2 mps 698 mmHg 15%
    13:00 +30°C° 0 mm 2 mps 697 mmHg 14%
    14:00 +30°C° 0 mm 2 mps 697 mmHg 13%
    15:00 +31°C° 0 mm 2 mps 696 mmHg 12%
    16:00 +31°C° 0 mm 2 mps 695 mmHg 12%
    17:00 +30°C° 0 mm 2 mps 695 mmHg 14%
    18:00 +29°C° 0 mm 1 mps 694 mmHg 16%
    19:00 +28°C° 0 mm 1 mps 694 mmHg 18%
    20:00 +27°C° 0 mm 1 mps 694 mmHg 18%
    21:00 +26°C° 0 mm 1 mps 694 mmHg 19%
    22:00 +25°C° 0 mm 1 mps 694 mmHg 20%
    23:00 +22°C° 0 mm 0 mps 693 mmHg 20%

    Day after tomorrow, 20 April, Saturday

    Time Temperature Precipitation Wind Pressure Humidity
    00:00 +22°C° 0 mm 0 mps 693 mmHg 21%
    01:00 +21°C° 0 mm 0 mps 692 mmHg 21%
    02:00 +21°C° 0 mm 0 mps 692 mmHg 22%
    03:00 +21°C° 0 mm 0 mps 692 mmHg 22%
    04:00 +22°C° 0 mm 1 mps 691 mmHg 22%
    05:00 +23°C° 0.1 mm 1 mps 692 mmHg 23%
    06:00 +24°C° 0.1 mm 1 mps 692 mmHg 23%
    07:00 +25°C° 0.1 mm 2 mps 693 mmHg 23%
    08:00 +26°C° 0 mm 2 mps 693 mmHg 23%
    09:00 +27°C° 0 mm 3 mps 693 mmHg 23%
    10:00 +28°C° 0 mm 3 mps 693 mmHg 22%
    11:00 +29°C° 0 mm 4 mps 692 mmHg 20%
    12:00 +30°C° 0 mm 6 mps 692 mmHg 17%
    13:00 +32°C° 0 mm 7 mps 692 mmHg 15%
    14:00 +32°C° 0 mm 8 mps 691 mmHg 16%
    15:00 +31°C° 0 mm 9 mps 690 mmHg 17%
    16:00 +31°C° 0 mm 10 mps 690 mmHg 18%
    17:00 +29°C° 0 mm 10 mps 690 mmHg 21%
    18:00 +27°C° 0 mm 10 mps 690 mmHg 23%
    19:00 +24°C° 0 mm 10 mps 689 mmHg 25%
    20:00 +23°C° 0 mm 10 mps 690 mmHg 29%
    21:00 +22°C° 0 mm 9 mps 690 mmHg 34%
    22:00 +21°C° 0 mm 8 mps 690 mmHg 38%
    23:00 +20°C° 0 mm 8 mps 690 mmHg 41%

    21 April, Sunday

    Time Temperature Precipitation Wind Pressure Humidity
    00:00 +18°C° 0 mm 7 mps 690 mmHg 45%
    01:00 +17°C° 0 mm 7 mps 690 mmHg 49%
    02:00 +16°C° 0 mm 6 mps 690 mmHg 51%
    03:00 +15°C° 0 mm 6 mps 690 mmHg 53%
    04:00 +14°C° 0 mm 5 mps 690 mmHg 55%
    05:00 +15°C° 0 mm 5 mps 691 mmHg 53%
    06:00 +15°C° 0 mm 4 mps 692 mmHg 51%
    07:00 +17°C° 0 mm 3 mps 692 mmHg 49%
    08:00 +18°C° 0.1 mm 3 mps 693 mmHg 47%
    09:00 +18°C° 0.1 mm 3 mps 693 mmHg 45%
    10:00 +19°C° 0.1 mm 2 mps 693 mmHg 44%
    11:00 +20°C° 0.1 mm 3 mps 693 mmHg 41%
    12:00 +21°C° 0.1 mm 3 mps 693 mmHg 39%
    13:00 +22°C° 0.1 mm 3 mps 693 mmHg 36%
    14:00 +23°C° 0.1 mm 4 mps 693 mmHg 34%
    15:00 +25°C° 0.1 mm 5 mps 693 mmHg 32%
    16:00 +24°C° 0.1 mm 6 mps 693 mmHg 30%
    17:00 +23°C° 0.2 mm 5 mps 693 mmHg 31%
    18:00 +23°C° 0.2 mm 4 mps 694 mmHg 32%
    19:00 +22°C° 0.2 mm 3 mps 694 mmHg 33%
    20:00 +22°C° 0.1 mm 3 mps 694 mmHg 34%
    21:00 +21°C° 0.1 mm 4 mps 695 mmHg 35%
    22:00 +21°C° 0.1 mm 4 mps 695 mmHg 36%
    23:00 +20°C° 0 mm 4 mps 695 mmHg 35%

    22 April, Monday

    Time Temperature Precipitation Wind Pressure Humidity
    00:00 +20°C° 0 mm 4 mps 695 mmHg 34%
    01:00 +19°C° 0 mm 4 mps 695 mmHg 33%
    02:00 +18°C° 0 mm 4 mps 695 mmHg 32%
    03:00 +18°C° 0 mm 4 mps 696 mmHg 30%
    04:00 +17°C° 0 mm 4 mps 696 mmHg 28%
    05:00 +18°C° 0 mm 4 mps 696 mmHg 25%
    06:00 +18°C° 0 mm 4 mps 697 mmHg 22%
    07:00 +19°C° 0 mm 4 mps 698 mmHg 20%
    08:00 +20°C° 0 mm 4 mps 698 mmHg 19%
    09:00 +21°C° 0 mm 4 mps 698 mmHg 19%
    10:00 +22°C° 0 mm 4 mps 698 mmHg 18%
    11:00 +23°C° 0 mm 4 mps 698 mmHg 18%
    12:00 +25°C° 0 mm 4 mps 697 mmHg 18%
    13:00 +26°C° 0 mm 4 mps 697 mmHg 18%
    14:00 +26°C° 0 mm 4 mps 697 mmHg 18%
    15:00 +26°C° 0 mm 4 mps 697 mmHg 17%
    16:00 +27°C° 0 mm 4 mps 696 mmHg 17%
    17:00 +26°C° 0 mm 4 mps 696 mmHg 18%
    18:00 +25°C° 0 mm 4 mps 697 mmHg 19%
    19:00 +25°C° 0 mm 4 mps 697 mmHg 20%
    20:00 +23°C° 0 mm 4 mps 697 mmHg 22%
    21:00 +22°C° 0 mm 4 mps 697 mmHg 23%
    22:00 +21°C° 0 mm 3 mps 698 mmHg 25%
    23:00 +21°C° 0 mm 3 mps 698 mmHg 27%

    23 April, Tuesday

    Time Temperature Precipitation Wind Pressure Humidity
    00:00 +20°C° 0 mm 3 mps 698 mmHg 30%
    01:00 +20°C° 0 mm 3 mps 698 mmHg 32%
    02:00 +19°C° 0 mm 3 mps 698 mmHg 33%
    03:00 +19°C° 0 mm 3 mps 698 mmHg 33%
    04:00 +18°C° 0 mm 3 mps 698 mmHg 34%
    05:00 +19°C° 0 mm 4 mps 699 mmHg 33%
    06:00 +20°C° 0 mm 5 mps 699 mmHg 32%
    07:00 +20°C° 0 mm 5 mps 700 mmHg 31%
    08:00 +22°C° 0 mm 6 mps 700 mmHg 28%
    09:00 +23°C° 0 mm 6 mps 700 mmHg 25%
    10:00 +24°C° 0 mm 6 mps 700 mmHg 21%
    11:00 +24°C° 0 mm 6 mps 700 mmHg 20%
    12:00 +26°C° 0 mm 5 mps 699 mmHg 18%
    13:00 +27°C° 0 mm 5 mps 699 mmHg 16%
    14:00 +27°C° 0 mm 5 mps 699 mmHg 16%
    15:00 +28°C° 0 mm 5 mps 698 mmHg 16%
    16:00 +28°C° 0 mm 4 mps 698 mmHg 16%
    17:00 +27°C° 0 mm 4 mps 698 mmHg 17%
    18:00 +26°C° 0 mm 4 mps 698 mmHg 18%
    19:00 +26°C° 0 mm 4 mps 698 mmHg 19%
    20:00 +25°C° 0 mm 4 mps 699 mmHg 21%
    21:00 +23°C° 0 mm 4 mps 699 mmHg 22%
    22:00 +22°C° 0 mm 3 mps 699 mmHg 23%
    23:00 +22°C° 0 mm 3 mps 699 mmHg 25%
    Show more